Location: Unspecified
(0.0000°N, 0.0000°E)
Time: 17:56:08
(UTC+00:00)

Hubble Space Telescope - Pass Details

Date: 23 January 2020
Orbit: 536 x 540 km, 28.5° (Epoch: 23 January)

Event Time Altitude Azimuth Distance (km) Brightness Sun altitude
Rises 18:36:31 0° 276° (W) 2,674 5.7 -5.8°
Reaches altitude 10° 18:39:10 10° 260° (W) 1,784 5.1 -6.5°
Maximum altitude 18:42:22 22° 209° (SSW) 1,215 3.3 -7.2°
Drops below altitude 10° 18:45:35 10° 158° (SSE) 1,786 3.4 -8.0°
Sets 18:48:15 0° 142° (SE) 2,677 4.1 -8.6°
